Вернуться в каталог

STARLINK-37632

АктивенСвязьVLEO
NORAD 69374·PAYLOAD·🇺🇸 United States

Запущен Jun 4, 2026 с Cape Canaveral Space Force Station

Loading…

Ближайшие Пролёты (ближайшие 24 часа)

TLE

СвежийSource: CelesTrak SupGP

Эпоха: Sep 15, 2026, 02:55 UTC

1 69374C 26123X   26258.12201389 -.00005778  00000+0 -17070-3 0  2586
2 69374  53.1577 166.9728 0001376  83.1177 228.0936 15.34391779    12

Отслеживайте STARLINK-37632 в реальном времени с AllMySat

Download on the App Store